Location: Cella
(44.7333°N, 10.5667°E)
Time: 13:04:18
(UTC+00:00)

COSMOS 1867 COOLANT - Pass Details

Date: 20 September 2021
Orbit: 770 x 802 km, 65.0° (Epoch: 15 October)

Event Time Altitude Azimuth Distance (km) Brightness Sun altitude
Rises 18:49:29 0° 326° (NW) 3,319 ? -16.6°
Reaches altitude 10° 18:54:40 10° 7° (N) 2,388 ? -17.5°
Maximum altitude 18:55:30 10° 16° (NNE) 2,365 ? -17.7°
Drops below altitude 10° 18:56:20 10° 25° (NNE) 2,387 ? -17.8°
Enters shadow 18:58:49 - 48° (NE) 2,690 ? -18.2°
